Regional Weather Roundup
Issued by NWS State College, PA

Home | Current Version | Previous Version | Graphics & Text | Print | Product List | Glossary On
Versions: 1 2 3 4 5 6 7 8 9 10 11 12 13 14 15 16 17 18 19 20 21 22 23 24 25 26 27 28 29 30 31 32 33 34 35 36 37 38 39 40 41 42 43 44 45 46 47 48 49 50
000
ASUS41 KCTP 071403
RWRCTP

REGIONAL WEATHER ROUNDUP
NATIONAL WEATHER SERVICE STATE COLLEGE PA
1000 AM EDT TUE JUL 07 2015

Note: "fair" indicates few or no clouds below 12,000 feet with no
significant weather and/or obstructions to visibility.

* = STATION THAT DOES NOT REPORT PRECIPITATION /E.G. RAIN...SNOW...ETC/
    THUNDER OR FOG.

PAZ002>004-007>009-013>016-020>023-029>032-071500-
WESTERN PENNSYLVANIA

CITY           SKY/WX    TMP DP  RH WIND       PRES   REMARKS
ERIE           SUNNY     80  67  64 S12G22    29.94S
MEADVILLE      LGT RAIN  74  67  78 S13       30.00F
FRANKLIN*      CLOUDY    72  66  83 SW9       30.04S
NEW CASTLE     FAIR      78  71  79 VRB3      30.02F
BEAVER COUNTY  PTSUNNY   75  70  83 SW7       30.03F
BUTLER*        PTSUNNY   75  70  83 SW13      30.06R
PITTSBURGH INT MOSUNNY   76  68  76 SW9       30.04S
PITTSBURGH     MOSUNNY   75  66  73 SW9       30.05S
INDIANA*       PTSUNNY   73  70  88 SW8       30.09F
LATROBE        MOSUNNY   75  72  88 SW12      30.07S
WASHINGTON CO* NOT AVBL
$$

PAZ004>006-010>012-017>019-024>028-033>037-041-042-045-046-049>053-071500-
CENTRAL PENNSYLVANIA

CITY           SKY/WX    TMP DP  RH WIND       PRES   REMARKS
BRADFORD       MOSUNNY   72  63  73 W10G16    30.05S
DUBOIS         CLOUDY    73  66  78 SW9       30.06S
CLEARFIELD     PTSUNNY   73  66  78 S10       30.06F
JOHNSTOWN      MOSUNNY   71  65  81 SW8       30.10S HAZE
ALTOONA        PTSUNNY   73  66  78 SW7       30.09S
STATE COLLEGE  PTSUNNY   72  68  88 SW6       30.06F FOG
WILLIAMSPORT   PTSUNNY   77  70  79 W6        30.00S
SELINSGROVE    PTSUNNY   77  71  82 VRB5      30.03F
FT INDIANTOWN  MOSUNNY   77  71  81 SW8       30.03F
CAPITAL CITY   PTSUNNY   78  70  76 VRB5      30.03F
HARRISBURG     PTSUNNY   78  70  76 CALM      30.03S
YORK           PTSUNNY   78  70  76 W3        30.05F
$$

PAZ038>040-043-044-047-048-054-055-060>062-067>071-071500-
EASTERN PENNSYLVANIA

CITY           SKY/WX    TMP DP  RH WIND       PRES   REMARKS
SCRANTON       PTSUNNY   78  70  76 SW7       30.03F
MOUNT POCONO   CLOUDY    73  67  81 SW9       30.09F
ALLENTOWN      CLOUDY    79  72  79 SW7       30.03F
QUAKERTOWN*    CLOUDY    75  72  88 SW7       30.07S
READING        PTSUNNY   78  71  79 SW7       30.03F
LANCASTER      PTSUNNY   77  71  82 SW5       30.04F
COATESVILLE    CLOUDY    75  73  94 W6        30.08S
POTTSTOWN      CLOUDY    76  72  87 CALM      30.07S
BLUE BELL      CLOUDY    79  72  78 SW7       30.06R
DOYLESTOWN     CLOUDY    75  70  84 SW7       30.06R
WILLOW GROVE   NOT AVBL
NORTH PHILA    PTSUNNY   83  70  64 W10       30.06S
PHILADELPHIA   MOSUNNY   81  72  74 W12       30.05S
$$



USA.gov is the U.S. government's official web portal to all federal, state and local government web resources and services.